SCP
0 0 0 0 0 0 0 0 0 0 0 0 0 0 0 0 0 0 0 -0 -0 -0 -0 -0 -0 -0 0 0 0 0 -0 -0 -0 -0 -0 -0 -0 -0 -0 -0 -0 -0 -0 -0 -0 -0 -0 -0 -0
0 0 0 0 0 0 0 0 0 0 0 0 -0 0 0 0 0 0 0 -0 -0 -0 -0 -0 -0 -0 -0 0 0 0 0 -0 -0 -0 -0 -0 -0 -0 -0 -0 -0 -0 -0 -0 -0 -0 0 0 0
0 0 0 0 0 0 0 0 0 0 0 0 0 0 0 0 0 0 0 0 -0 -0 0 -0 -0 -0 -0 -0 0 0 0 0 0 0 0 0 0 0 0 0 0 0 0 0 0 0 0 -0 0
0 0 0 0 0 -0 -0 0 0 0 0 0 0 0 0 0 0 0 -0 -0 -0 -0 -0 -0 -0 -0 -0 -0 0 0 0 0 0 0 0 0 0 0 0 0 -0 -0 -0 0 -0 -0 0 -0 -0
0 0 0 0 0 -0 -0 0 0 0 0 0 0 0 0 0 0 -0 -0 -0 -0 -0 0 0 -0 -0 0 0 0 0 0 0 0 0 0 0 0 0 0 0 0 0 0 0 0 0 0 0 0
0 0 0 0 0 0 -0 -0 0 0 0 0 0 0 0 0 0 0 0 0 0 0 0 0 0 0 0 0 0 0 0 0 0 0 0 0 0 0 0 0 0 0 0 0 0 0 0 0 0
0 0 0 0 0 0 0 0 0 0 0 0 0 0 0 0 0 0 0 0 0 0 0 0 0 0 0 0 0 0 0 0 0 0 0 0 0 0 0 0 0 0 0 0 0 0 0 0 0
0 0 0 0 0 0 0 0 0 0 0 0 0 0 0 0 0 0 0 0 0 0 0 0 0 0 0 0 0 0 0 0 0 0 0 0 0 -0 0 0 0 0 0 0 0 0 0 0 0
0 0 0 0 0 0 0 0 0 0 0 0 0 0 0 0 0 0 0 0 0 0 0 0 0 0 0 0 0 0 0 0 0 0 0 0 0 0 0 0 0 0 0 0 0 0 0 0 0
0 0 0 0 0 0 0 0 1 1 1 0 0 0 0 0 0 0 0 0 0 0 0 0 0 0 0 0 0 0 0 0 0 0 0 0 0 0 0 0 0 0 0 0 0 0 0 0 0
0 0 0 0 0 0 0 0 0 1 1 0 0 0 0 0 0 0 0 0 0 0 0 0 0 0 0 0 0 0 0 0 0 0 0 0 0 0 0 0 0 0 0 0 0 0 0 0 0
0 0 0 0 -0 0 0 0 0 1 1 0 0 0 0 0 0 0 0 0 0 0 0 0 0 0 0 0 0 0 0 0 0 0 0 0 0 0 0 0 0 0 0 0 0 0 0 0 0
0 0 0 0 0 -0 0 0 0 1 0 0 0 0 0 0 0 0 0 0 0 0 0 0 0 0 0 0 0 0 0 0 0 0 0 0 0 0 0 0 0 0 0 0 0 0 0 0 0
0 0 0 0 0 -0 0 0 0 0 0 0 0 0 0 0 0 0 0 0 0 0 0 0 0 0 0 0 0 0 0 0 0 0 0 0 0 0 0 0 0 0 0 0 0 0 0 0 0
0 0 0 0 0 0 0 0 0 0 0 0 0 0 0 0 0 0 0 0 0 0 0 0 0 0 0 0 0 0 0 0 0 0 0 0 0 0 0 0 0 0 0 0 0 0 0 0 0
0 0 0 0 0 0 0 0 0 0 0 0 0 0 0 0 0 0 0 0 0 0 0 0 0 0 0 0 0 0 0 0 0 0 0 0 0 0 0 0 0 0 0 0 0 0 0 0 0
0 0 -0 0 0 0 0 0 0 0 0 0 0 0 0 0 0 0 0 0 0 0 0 0 0 0 0 0 0 0 0 0 0 0 0 0 0 0 0 0 0 0 0 0 0 0 0 0 0
0 0 0 0 0 0 -0 0 0 0 0 0 0 0 0 0 0 0 0 0 0 0 0 0 0 0 0 0 0 0 0 0 0 0 0 0 0 0 0 0 0 0 0 0 0 0 0 0 0
0 -0 0 0 0 0 0 0 0 0 0 0 0 0 0 0 0 0 0 0 0 0 0 0 0 0 0 0 0 0 0 0 0 0 0 0 0 0 0 0 0 0 0 0 0 0 0 0 0
0 0 0 0 0 0 -0 0 0 0 0 0 0 0 0 0 0 0 0 0 0 0 0 0 0 0 0 0 0 0 0 0 0 0 0 0 0 0 0 0 0 0 0 0 0 0 0 0 0
0 0 0 0 -0 -0 -0 -0 0 0 0 0 0 0 0 0 0 0 0 0 0 0 0 0 0 0 0 0 0 0 0 0 0 0 0 0 0 0 0 0 0 0 0 0 0 0 0 0 0
0 0 -0 -0 -0 -0 0 -0 0 0 0 0 0 0 0 0 0 0 0 0 0 0 0 0 0 0 0 0 0 0 0 0 0 0 0 0 0 0 0 0 0 0 0 0 0 0 0 0 0
0 0 -0 0 -0 -0 -0 -0 -0 -0 0 0 0 0 0 0 0 0 0 0 0 0 0 0 0 0 0 0 0 0 0 0 0 0 0 0 0 0 0 0 0 0 0 0 0 0 0 0 0
0 0 0 0 0 0 -0 -0 -0 -0 0 0 0 0 0 0 0 0 0 0 0 0 0 0 0 0 0 0 0 0 0 0 0 0 0 0 0 0 0 0 0 0 0 0 0 0 0 0 0
0 0 0 0 0 -0 -0 -0 -0 -0 0 0 0 0 0 0 0 0 0 0 0 0 0 0 0 0 0 0 0 0 0 0 0 0 0 0 0 0 0 0 0 0 0 0 0 0 0 0 0
0 0 0 0 0 0 0 -0 -0 0 0 0 0 0 0 0 0 0 0 0 0 0 0 0 0 0 0 0 0 0 0 0 0 0 0 0 0 0 0 0 0 0 0 0 0 0 0 0 0
0 0 -0 -0 -0 0 0 0 0 0 0 0 0 0 0 0 0 0 0 0 0 0 0 0 0 0 0 0 0 0 0 0 0 0 0 0 0 0 0 0 0 0 0 0 0 0 0 0 0
0 0 -0 -0 0 0 0 0 0 0 -0 0 0 0 0 0 0 0 0 0 0 0 0 0 0 0 0 0 0 0 0 0 0 0 0 0 0 0 0 0 0 0 0 0 0 0 0 0 0
0 0 0 -0 -0 0 0 0 0 0 -0 0 0 0 0 0 0 0 0 0 0 0 0 0 0 0 0 0 0 0 0 0 0 0 0 0 0 0 0 0 0 0 0 0 0 0 0 0 0
0 0 0 0 -0 0 0 0 -0 0 0 0 0 0 0 0 0 0 0 0 0 0 0 0 0 0 0 0 0 0 0 0 0 0 0 0 0 0 0 0 0 0 0 0 0 0 0 0 0
Wind_Speed_500mb
12 6 3 8 5 7 8 13 5 10 9 23 21 28 21 20 6 6 38 37 36 46 40 40 39 36 26 20 22 23 22 22 23 23 23 23 24 25 25 25 25 25 26 26 27 28 27 26 25
13 6 11 9 7 4 11 13 14 12 27 46 42 30 15 7 14 42 52 32 46 47 40 37 37 32 25 23 25 27 27 27 25 24 23 23 23 23 23 23 23 24 26 27 27 27 27 27 26
17 13 8 6 7 11 11 6 16 31 45 23 16 26 12 15 31 41 39 43 44 45 40 41 40 36 30 27 28 28 27 25 23 23 22 23 22 22 22 22 22 24 25 26 27 27 28 27 27
21 10 12 2 12 18 16 5 14 23 28 25 41 16 16 8 48 33 39 41 47 42 42 45 41 38 30 26 26 26 25 25 23 22 22 20 20 20 21 22 24 26 27 27 27 27 28 28 28
17 6 4 8 15 17 11 12 29 13 19 38 33 10 17 25 20 40 45 37 48 39 44 45 40 35 29 25 24 25 25 24 23 22 20 19 20 21 22 23 24 24 25 25 26 27 27 27 27
5 4 3 7 19 30 11 25 43 17 33 33 31 22 15 26 39 51 44 49 45 35 45 44 40 35 24 24 22 22 22 22 21 20 20 21 22 22 23 24 24 25 25 25 26 26 26 26 28
10 5 8 12 20 33 24 26 22 25 23 13 58 13 26 45 59 58 47 46 43 34 45 45 44 39 29 23 21 22 22 21 20 20 21 22 21 23 25 24 25 25 26 25 25 25 24 23 23
10 9 8 9 17 31 39 32 40 30 5 57 47 20 24 59 61 59 52 47 40 37 41 41 44 38 30 25 21 21 20 20 20 21 20 18 22 19 27 23 21 20 17 18 19 20 19 20 20
23 4 10 9 12 22 58 16 12 20 38 12 20 54 57 70 71 58 53 47 43 38 41 42 45 39 30 22 19 18 17 17 20 21 21 19 16 16 18 15 16 14 15 15 16 16 16 17 14
18 9 15 16 26 30 48 29 23 17 26 12 28 31 83 81 78 70 66 58 54 48 42 35 38 35 25 23 21 19 17 16 15 16 14 11 12 10 5 8 11 12 11 11 13 9 12 12 13
10 18 8 35 49 53 43 56 29 40 7 32 56 84 93 86 81 76 64 61 58 52 50 42 31 29 24 28 24 21 18 19 18 15 13 10 4 3 3 6 7 10 6 3 5 6 14 14 13
23 29 27 47 69 43 29 48 15 29 23 60 69 95 97 93 86 84 70 68 69 66 54 42 38 31 32 26 19 24 26 23 13 11 10 8 4 3 4 2 5 8 3 5 12 13 17 13 13
35 18 32 40 57 51 50 38 22 6 33 60 79 82 88 92 89 84 71 66 57 57 59 53 47 40 36 23 30 30 25 19 14 10 9 7 6 5 9 5 1 3 3 12 12 10 9 11 11
24 22 37 41 52 44 38 17 11 11 62 73 87 70 76 82 83 78 68 64 56 55 63 57 54 45 38 38 33 31 25 20 16 13 11 10 9 9 6 1 2 3 9 11 6 9 8 7 5
23 21 28 54 49 26 27 12 10 31 54 70 67 70 70 70 64 69 64 69 60 54 61 61 53 48 47 40 38 32 23 20 20 16 15 7 6 6 4 5 3 6 4 6 6 7 8 7 3
9 18 32 35 52 37 26 43 8 50 59 58 63 63 72 72 74 73 70 64 54 53 55 59 52 48 48 46 39 34 32 24 19 18 14 4 4 12 7 3 3 5 5 2 5 7 9 10 6
15 17 17 20 37 24 19 17 23 42 60 57 54 66 80 73 73 80 68 56 55 58 59 60 53 53 47 43 41 36 29 23 23 16 17 11 9 8 5 4 6 4 2 7 10 13 14 13 10
24 14 20 23 9 15 27 35 31 49 52 55 55 66 74 72 71 70 69 67 66 65 65 64 61 57 48 46 41 35 30 28 17 25 19 11 8 7 5 7 3 2 7 10 12 15 18 18 13
17 12 21 13 11 5 16 24 29 48 47 47 46 53 69 68 68 67 63 68 67 64 66 65 63 57 52 49 42 38 34 26 33 27 19 11 9 12 10 4 2 6 9 11 14 15 14 13 11
31 29 16 6 0 11 8 31 22 34 46 60 61 51 61 64 65 62 62 64 62 62 61 59 55 52 50 47 45 43 35 37 30 25 17 15 16 11 6 1 5 8 11 13 14 17 18 16 11
26 26 12 2 4 4 7 11 12 28 29 46 47 50 52 68 65 64 61 60 59 57 59 55 53 53 50 48 48 46 45 39 31 24 20 20 14 6 3 1 5 8 12 14 16 18 18 16 14
25 19 29 9 7 6 4 7 3 25 19 31 48 55 70 68 63 61 60 57 52 53 51 57 60 58 55 54 53 54 47 40 33 25 23 18 12 5 2 5 7 11 13 15 15 16 16 14 11
14 15 23 16 17 7 8 6 2 15 18 21 40 61 63 74 75 70 66 56 49 50 50 54 62 61 60 58 55 54 44 35 33 32 24 16 10 4 1 5 9 11 13 15 15 14 12 14 14
11 5 10 10 6 13 21 13 9 12 20 15 29 52 65 73 70 69 60 54 51 49 52 55 55 56 57 55 53 40 33 38 38 30 22 15 9 6 1 4 8 10 12 13 13 13 14 15 16
4 8 8 12 11 9 33 15 26 18 15 26 20 45 61 77 77 71 68 58 56 54 54 52 53 56 55 49 46 43 38 37 30 23 19 14 9 3 1 5 8 10 10 12 12 12 13 13 15
13 9 9 7 9 8 20 15 10 6 10 32 54 51 64 73 73 73 68 68 55 61 57 52 48 46 48 39 40 39 41 31 25 20 19 12 7 3 3 5 8 10 10 10 10 11 13 15 16
9 10 3 11 6 6 9 4 6 2 9 11 46 56 58 65 72 68 68 63 65 56 61 54 46 45 37 42 43 38 33 27 23 23 16 10 8 6 3 5 7 10 10 10 11 13 14 16 19
13 4 4 1 8 2 5 6 2 9 13 14 32 47 51 60 65 67 70 66 72 74 68 64 57 49 47 49 40 33 30 25 24 17 13 11 9 5 3 5 8 10 11 13 14 15 17 19 22
3 7 8 7 5 4 5 4 4 12 18 30 33 50 57 63 69 69 67 59 58 58 56 55 53 54 54 49 44 40 32 28 20 18 15 13 8 4 5 7 9 11 14 16 18 19 21 23 26
8 9 12 5 6 7 5 4 4 7 2 16 31 44 44 55 64 62 55 64 68 64 61 56 57 56 55 45 42 38 34 29 23 20 16 12 8 6 6 8 11 14 16 18 20 23 25 27 29
Wind_Direction_500mb
300 291 358 305 62 69 245 254 228 120 66 93 87 86 105 55 76 173 144 161 181 161 156 154 157 159 158 150 144 145 143 132 122 116 108 101 94 88 82 78 73 69 64 60 58 57 57 58 57
300 291 312 276 120 144 263 238 244 149 129 105 88 101 62 76 107 133 151 172 167 159 154 156 160 159 150 143 138 138 136 131 126 118 109 99 91 85 78 72 68 64 63 60 56 53 51 50 50
318 296 303 171 184 188 221 253 176 134 138 126 106 91 98 130 137 145 158 159 164 158 155 152 152 148 138 136 138 137 134 128 119 111 102 94 88 82 76 71 67 66 66 61 56 53 51 49 47
348 334 263 157 249 252 217 32 257 131 136 128 125 76 81 119 146 155 149 159 164 156 154 149 148 146 142 133 135 134 131 125 117 107 100 96 89 79 71 66 60 57 55 54 52 51 49 47 44
355 270 277 304 271 259 292 211 177 143 141 133 123 115 102 152 150 155 146 157 168 163 158 153 152 152 143 133 132 134 133 128 117 109 101 92 82 77 74 68 63 59 57 54 52 49 46 44 42
359 274 295 251 264 275 274 254 158 157 141 130 106 103 134 160 167 157 151 156 160 162 165 159 159 156 149 135 129 132 129 125 121 114 106 95 88 79 70 64 61 59 57 55 54 52 51 51 49
162 120 238 273 274 282 267 252 164 163 157 147 139 99 142 154 154 158 163 163 165 169 168 163 162 163 153 140 134 135 133 130 124 114 106 99 87 76 67 62 62 59 55 54 52 48 49 49 45
275 139 256 247 271 279 279 247 180 183 44 144 150 150 165 164 160 166 166 166 169 174 182 167 164 166 159 147 143 141 134 125 114 107 103 99 81 70 74 63 59 55 52 55 55 53 49 29 32
255 239 201 243 264 269 278 265 150 124 133 142 170 162 170 163 161 168 168 171 176 176 177 169 168 172 166 157 150 146 137 125 116 105 92 86 85 73 60 53 54 53 50 46 51 37 26 11 23
189 204 220 194 248 263 289 274 153 131 129 83 121 158 156 160 166 169 171 171 173 174 171 173 178 172 176 170 161 155 146 131 130 107 98 108 114 94 66 63 46 31 34 23 15 20 354 16 27
244 233 241 264 258 261 284 307 204 147 170 162 148 150 156 163 168 171 170 172 175 168 169 170 164 160 162 162 169 158 141 120 124 120 127 122 96 99 21 84 34 342 357 23 77 19 348 16 11
257 263 264 261 269 276 279 300 221 163 178 184 171 159 162 168 171 173 172 171 175 175 181 189 167 180 169 171 182 146 152 146 149 146 145 148 180 274 282 208 308 316 336 347 353 355 6 20 54
252 270 278 287 295 298 279 286 247 99 161 171 159 160 167 171 173 176 175 176 184 187 176 168 171 175 182 187 172 166 160 156 161 165 172 184 212 249 288 259 238 32 10 333 340 356 56 65 62
282 281 271 287 287 298 275 249 250 126 157 156 158 166 169 174 177 178 179 179 183 179 172 171 179 183 178 170 174 172 174 180 189 199 191 197 225 250 238 182 176 332 329 330 36 85 70 52 49
245 239 282 272 272 288 268 254 213 154 149 148 160 161 166 176 180 179 178 179 184 188 181 179 184 182 180 183 182 183 181 192 201 198 198 221 282 182 203 183 319 321 41 72 38 24 19 14 28
226 230 243 264 266 272 239 250 185 169 159 153 162 167 168 172 179 182 176 176 180 172 170 171 176 182 189 189 193 195 200 204 205 195 193 233 276 196 194 269 321 111 100 46 342 342 348 351 2
240 223 225 257 251 262 260 237 182 180 164 149 163 164 163 159 159 163 168 172 172 173 173 175 183 186 193 193 196 197 200 203 204 203 198 180 200 209 251 267 150 123 344 336 337 341 344 356 8
235 245 224 226 20 340 281 272 179 187 170 163 163 167 171 174 170 171 173 176 177 177 177 185 185 191 194 196 194 197 197 208 214 176 177 178 197 236 208 165 154 327 333 335 338 341 347 357 16
284 223 272 207 85 80 304 310 203 191 176 164 162 165 169 182 177 180 179 181 185 185 186 194 193 198 197 195 196 199 196 207 177 173 172 175 186 173 170 186 324 331 330 340 341 345 352 358 40
238 255 243 275 174 119 324 300 314 211 186 172 165 169 168 178 177 178 180 184 187 188 188 191 194 196 198 202 206 199 186 177 176 177 171 168 166 169 178 274 332 338 346 348 343 347 354 5 24
241 242 214 308 229 88 307 254 297 236 188 171 171 167 168 178 177 176 182 186 187 188 191 190 193 193 200 202 199 191 180 174 177 179 170 166 164 178 212 291 352 348 349 348 353 358 359 11 19
264 219 221 199 179 237 168 279 258 300 197 175 167 171 178 182 185 181 185 185 187 189 189 196 197 203 205 204 199 195 183 178 171 168 169 170 173 178 324 349 2 354 350 355 354 360 2 10 16
254 188 217 191 186 175 156 254 164 184 282 205 179 178 175 182 188 184 185 189 185 187 190 194 196 195 202 196 189 180 173 172 167 166 173 174 177 175 230 358 357 353 350 348 355 358 5 4 11
270 232 275 198 203 233 188 170 200 191 217 216 189 175 169 174 184 186 181 184 183 182 187 189 189 187 183 187 182 176 174 173 168 168 175 174 181 190 89 347 341 349 350 347 349 356 5 10 7
147 224 227 215 188 227 165 179 244 210 156 192 198 169 161 171 183 183 180 180 178 180 179 176 180 178 180 179 172 170 162 174 166 169 177 179 175 155 296 339 342 341 344 339 342 351 360 1 360
201 221 256 220 180 184 152 208 266 171 165 147 184 184 170 176 182 180 179 178 178 177 172 168 174 183 173 177 162 166 172 170 174 174 184 170 170 203 286 322 327 332 335 329 330 337 346 351 347
261 213 123 310 257 172 169 275 280 134 209 222 180 166 173 179 188 184 177 165 172 179 172 168 168 166 168 163 155 175 176 173 180 184 167 171 196 220 278 316 322 319 322 319 324 330 336 335 334
226 195 54 77 292 87 55 337 256 206 223 126 160 164 169 175 185 186 169 183 179 177 175 172 177 183 176 161 166 177 184 179 186 173 175 196 207 230 284 307 321 316 314 313 317 323 329 325 322
244 249 255 160 250 330 121 253 200 197 197 175 170 169 167 173 181 179 174 185 180 179 174 180 177 175 164 174 173 183 182 186 182 183 197 208 215 234 278 312 310 306 305 309 319 318 317 317 317
256 255 210 151 272 260 248 214 296 264 161 159 156 149 150 172 183 188 177 182 181 184 180 179 177 172 175 175 180 179 187 182 184 194 206 214 222 246 278 297 295 302 310 310 312 313 311 309 310
Wind_Speed_850mb
12 6 3 8 5 7 8 13 5 10 9 23 21 28 21 20 6 6 38 37 36 46 40 40 39 36 26 20 22 23 22 22 23 23 23 23 24 25 25 25 25 25 26 26 27 28 27 26 25
13 6 11 9 7 4 11 13 14 12 27 46 42 30 15 7 14 42 52 32 46 47 40 37 37 32 25 23 25 27 27 27 25 24 23 23 23 23 23 23 23 24 26 27 27 27 27 27 26
17 13 8 6 7 11 11 6 16 31 45 23 16 26 12 15 31 41 39 43 44 45 40 41 40 36 30 27 28 28 27 25 23 23 22 23 22 22 22 22 22 24 25 26 27 27 28 27 27
21 10 12 2 12 18 16 5 14 23 28 25 41 16 16 8 48 33 39 41 47 42 42 45 41 38 30 26 26 26 25 25 23 22 22 20 20 20 21 22 24 26 27 27 27 27 28 28 28
17 6 4 8 15 17 11 12 29 13 19 38 33 10 17 25 20 40 45 37 48 39 44 45 40 35 29 25 24 25 25 24 23 22 20 19 20 21 22 23 24 24 25 25 26 27 27 27 27
5 4 3 7 19 30 11 25 43 17 33 33 31 22 15 26 39 51 44 49 45 35 45 44 40 35 24 24 22 22 22 22 21 20 20 21 22 22 23 24 24 25 25 25 26 26 26 26 28
10 5 8 12 20 33 24 26 22 25 23 13 58 13 26 45 59 58 47 46 43 34 45 45 44 39 29 23 21 22 22 21 20 20 21 22 21 23 25 24 25 25 26 25 25 25 24 23 23
10 9 8 9 17 31 39 32 40 30 5 57 47 20 24 59 61 59 52 47 40 37 41 41 44 38 30 25 21 21 20 20 20 21 20 18 22 19 27 23 21 20 17 18 19 20 19 20 20
23 4 10 9 12 22 58 16 12 20 38 12 20 54 57 70 71 58 53 47 43 38 41 42 45 39 30 22 19 18 17 17 20 21 21 19 16 16 18 15 16 14 15 15 16 16 16 17 14
18 9 15 16 26 30 48 29 23 17 26 12 28 31 83 81 78 70 66 58 54 48 42 35 38 35 25 23 21 19 17 16 15 16 14 11 12 10 5 8 11 12 11 11 13 9 12 12 13
10 18 8 35 49 53 43 56 29 40 7 32 56 84 93 86 81 76 64 61 58 52 50 42 31 29 24 28 24 21 18 19 18 15 13 10 4 3 3 6 7 10 6 3 5 6 14 14 13
23 29 27 47 69 43 29 48 15 29 23 60 69 95 97 93 86 84 70 68 69 66 54 42 38 31 32 26 19 24 26 23 13 11 10 8 4 3 4 2 5 8 3 5 12 13 17 13 13
35 18 32 40 57 51 50 38 22 6 33 60 79 82 88 92 89 84 71 66 57 57 59 53 47 40 36 23 30 30 25 19 14 10 9 7 6 5 9 5 1 3 3 12 12 10 9 11 11
24 22 37 41 52 44 38 17 11 11 62 73 87 70 76 82 83 78 68 64 56 55 63 57 54 45 38 38 33 31 25 20 16 13 11 10 9 9 6 1 2 3 9 11 6 9 8 7 5
23 21 28 54 49 26 27 12 10 31 54 70 67 70 70 70 64 69 64 69 60 54 61 61 53 48 47 40 38 32 23 20 20 16 15 7 6 6 4 5 3 6 4 6 6 7 8 7 3
9 18 32 35 52 37 26 43 8 50 59 58 63 63 72 72 74 73 70 64 54 53 55 59 52 48 48 46 39 34 32 24 19 18 14 4 4 12 7 3 3 5 5 2 5 7 9 10 6
15 17 17 20 37 24 19 17 23 42 60 57 54 66 80 73 73 80 68 56 55 58 59 60 53 53 47 43 41 36 29 23 23 16 17 11 9 8 5 4 6 4 2 7 10 13 14 13 10
24 14 20 23 9 15 27 35 31 49 52 55 55 66 74 72 71 70 69 67 66 65 65 64 61 57 48 46 41 35 30 28 17 25 19 11 8 7 5 7 3 2 7 10 12 15 18 18 13
17 12 21 13 11 5 16 24 29 48 47 47 46 53 69 68 68 67 63 68 67 64 66 65 63 57 52 49 42 38 34 26 33 27 19 11 9 12 10 4 2 6 9 11 14 15 14 13 11
31 29 16 6 0 11 8 31 22 34 46 60 61 51 61 64 65 62 62 64 62 62 61 59 55 52 50 47 45 43 35 37 30 25 17 15 16 11 6 1 5 8 11 13 14 17 18 16 11
26 26 12 2 4 4 7 11 12 28 29 46 47 50 52 68 65 64 61 60 59 57 59 55 53 53 50 48 48 46 45 39 31 24 20 20 14 6 3 1 5 8 12 14 16 18 18 16 14
25 19 29 9 7 6 4 7 3 25 19 31 48 55 70 68 63 61 60 57 52 53 51 57 60 58 55 54 53 54 47 40 33 25 23 18 12 5 2 5 7 11 13 15 15 16 16 14 11
14 15 23 16 17 7 8 6 2 15 18 21 40 61 63 74 75 70 66 56 49 50 50 54 62 61 60 58 55 54 44 35 33 32 24 16 10 4 1 5 9 11 13 15 15 14 12 14 14
11 5 10 10 6 13 21 13 9 12 20 15 29 52 65 73 70 69 60 54 51 49 52 55 55 56 57 55 53 40 33 38 38 30 22 15 9 6 1 4 8 10 12 13 13 13 14 15 16
4 8 8 12 11 9 33 15 26 18 15 26 20 45 61 77 77 71 68 58 56 54 54 52 53 56 55 49 46 43 38 37 30 23 19 14 9 3 1 5 8 10 10 12 12 12 13 13 15
13 9 9 7 9 8 20 15 10 6 10 32 54 51 64 73 73 73 68 68 55 61 57 52 48 46 48 39 40 39 41 31 25 20 19 12 7 3 3 5 8 10 10 10 10 11 13 15 16
9 10 3 11 6 6 9 4 6 2 9 11 46 56 58 65 72 68 68 63 65 56 61 54 46 45 37 42 43 38 33 27 23 23 16 10 8 6 3 5 7 10 10 10 11 13 14 16 19
13 4 4 1 8 2 5 6 2 9 13 14 32 47 51 60 65 67 70 66 72 74 68 64 57 49 47 49 40 33 30 25 24 17 13 11 9 5 3 5 8 10 11 13 14 15 17 19 22
3 7 8 7 5 4 5 4 4 12 18 30 33 50 57 63 69 69 67 59 58 58 56 55 53 54 54 49 44 40 32 28 20 18 15 13 8 4 5 7 9 11 14 16 18 19 21 23 26
8 9 12 5 6 7 5 4 4 7 2 16 31 44 44 55 64 62 55 64 68 64 61 56 57 56 55 45 42 38 34 29 23 20 16 12 8 6 6 8 11 14 16 18 20 23 25 27 29
Wind_Direction_850mb
300 291 358 305 62 69 245 254 228 120 66 93 87 86 105 55 76 173 144 161 181 161 156 154 157 159 158 150 144 145 143 132 122 116 108 101 94 88 82 78 73 69 64 60 58 57 57 58 57
300 291 312 276 120 144 263 238 244 149 129 105 88 101 62 76 107 133 151 172 167 159 154 156 160 159 150 143 138 138 136 131 126 118 109 99 91 85 78 72 68 64 63 60 56 53 51 50 50
318 296 303 171 184 188 221 253 176 134 138 126 106 91 98 130 137 145 158 159 164 158 155 152 152 148 138 136 138 137 134 128 119 111 102 94 88 82 76 71 67 66 66 61 56 53 51 49 47
348 334 263 157 249 252 217 32 257 131 136 128 125 76 81 119 146 155 149 159 164 156 154 149 148 146 142 133 135 134 131 125 117 107 100 96 89 79 71 66 60 57 55 54 52 51 49 47 44
355 270 277 304 271 259 292 211 177 143 141 133 123 115 102 152 150 155 146 157 168 163 158 153 152 152 143 133 132 134 133 128 117 109 101 92 82 77 74 68 63 59 57 54 52 49 46 44 42
359 274 295 251 264 275 274 254 158 157 141 130 106 103 134 160 167 157 151 156 160 162 165 159 159 156 149 135 129 132 129 125 121 114 106 95 88 79 70 64 61 59 57 55 54 52 51 51 49
162 120 238 273 274 282 267 252 164 163 157 147 139 99 142 154 154 158 163 163 165 169 168 163 162 163 153 140 134 135 133 130 124 114 106 99 87 76 67 62 62 59 55 54 52 48 49 49 45
275 139 256 247 271 279 279 247 180 183 44 144 150 150 165 164 160 166 166 166 169 174 182 167 164 166 159 147 143 141 134 125 114 107 103 99 81 70 74 63 59 55 52 55 55 53 49 29 32
255 239 201 243 264 269 278 265 150 124 133 142 170 162 170 163 161 168 168 171 176 176 177 169 168 172 166 157 150 146 137 125 116 105 92 86 85 73 60 53 54 53 50 46 51 37 26 11 23
189 204 220 194 248 263 289 274 153 131 129 83 121 158 156 160 166 169 171 171 173 174 171 173 178 172 176 170 161 155 146 131 130 107 98 108 114 94 66 63 46 31 34 23 15 20 354 16 27
244 233 241 264 258 261 284 307 204 147 170 162 148 150 156 163 168 171 170 172 175 168 169 170 164 160 162 162 169 158 141 120 124 120 127 122 96 99 21 84 34 342 357 23 77 19 348 16 11
257 263 264 261 269 276 279 300 221 163 178 184 171 159 162 168 171 173 172 171 175 175 181 189 167 180 169 171 182 146 152 146 149 146 145 148 180 274 282 208 308 316 336 347 353 355 6 20 54
252 270 278 287 295 298 279 286 247 99 161 171 159 160 167 171 173 176 175 176 184 187 176 168 171 175 182 187 172 166 160 156 161 165 172 184 212 249 288 259 238 32 10 333 340 356 56 65 62
282 281 271 287 287 298 275 249 250 126 157 156 158 166 169 174 177 178 179 179 183 179 172 171 179 183 178 170 174 172 174 180 189 199 191 197 225 250 238 182 176 332 329 330 36 85 70 52 49
245 239 282 272 272 288 268 254 213 154 149 148 160 161 166 176 180 179 178 179 184 188 181 179 184 182 180 183 182 183 181 192 201 198 198 221 282 182 203 183 319 321 41 72 38 24 19 14 28
226 230 243 264 266 272 239 250 185 169 159 153 162 167 168 172 179 182 176 176 180 172 170 171 176 182 189 189 193 195 200 204 205 195 193 233 276 196 194 269 321 111 100 46 342 342 348 351 2
240 223 225 257 251 262 260 237 182 180 164 149 163 164 163 159 159 163 168 172 172 173 173 175 183 186 193 193 196 197 200 203 204 203 198 180 200 209 251 267 150 123 344 336 337 341 344 356 8
235 245 224 226 20 340 281 272 179 187 170 163 163 167 171 174 170 171 173 176 177 177 177 185 185 191 194 196 194 197 197 208 214 176 177 178 197 236 208 165 154 327 333 335 338 341 347 357 16
284 223 272 207 85 80 304 310 203 191 176 164 162 165 169 182 177 180 179 181 185 185 186 194 193 198 197 195 196 199 196 207 177 173 172 175 186 173 170 186 324 331 330 340 341 345 352 358 40
238 255 243 275 174 119 324 300 314 211 186 172 165 169 168 178 177 178 180 184 187 188 188 191 194 196 198 202 206 199 186 177 176 177 171 168 166 169 178 274 332 338 346 348 343 347 354 5 24
241 242 214 308 229 88 307 254 297 236 188 171 171 167 168 178 177 176 182 186 187 188 191 190 193 193 200 202 199 191 180 174 177 179 170 166 164 178 212 291 352 348 349 348 353 358 359 11 19
264 219 221 199 179 237 168 279 258 300 197 175 167 171 178 182 185 181 185 185 187 189 189 196 197 203 205 204 199 195 183 178 171 168 169 170 173 178 324 349 2 354 350 355 354 360 2 10 16
254 188 217 191 186 175 156 254 164 184 282 205 179 178 175 182 188 184 185 189 185 187 190 194 196 195 202 196 189 180 173 172 167 166 173 174 177 175 230 358 357 353 350 348 355 358 5 4 11
270 232 275 198 203 233 188 170 200 191 217 216 189 175 169 174 184 186 181 184 183 182 187 189 189 187 183 187 182 176 174 173 168 168 175 174 181 190 89 347 341 349 350 347 349 356 5 10 7
147 224 227 215 188 227 165 179 244 210 156 192 198 169 161 171 183 183 180 180 178 180 179 176 180 178 180 179 172 170 162 174 166 169 177 179 175 155 296 339 342 341 344 339 342 351 360 1 360
201 221 256 220 180 184 152 208 266 171 165 147 184 184 170 176 182 180 179 178 178 177 172 168 174 183 173 177 162 166 172 170 174 174 184 170 170 203 286 322 327 332 335 329 330 337 346 351 347
261 213 123 310 257 172 169 275 280 134 209 222 180 166 173 179 188 184 177 165 172 179 172 168 168 166 168 163 155 175 176 173 180 184 167 171 196 220 278 316 322 319 322 319 324 330 336 335 334
226 195 54 77 292 87 55 337 256 206 223 126 160 164 169 175 185 186 169 183 179 177 175 172 177 183 176 161 166 177 184 179 186 173 175 196 207 230 284 307 321 316 314 313 317 323 329 325 322
244 249 255 160 250 330 121 253 200 197 197 175 170 169 167 173 181 179 174 185 180 179 174 180 177 175 164 174 173 183 182 186 182 183 197 208 215 234 278 312 310 306 305 309 319 318 317 317 317
256 255 210 151 272 260 248 214 296 264 161 159 156 149 150 172 183 188 177 182 181 184 180 179 177 172 175 175 180 179 187 182 184 194 206 214 222 246 278 297 295 302 310 310 312 313 311 309 310